TimeCEST,TemperatureF,Dew PointF,Humidity,Sea Level PressureIn,VisibilityMPH,Wind Direction,Wind SpeedMPH,Gust SpeedMPH,PrecipitationIn,Events,Conditions,WindDirDegrees,DateUTC
12:55 AM,64.4,55.4,73,30.15,-9999.0,North,1.2,-,N/A,,Clear,350,2012-10-02 22:55:00
1:55 AM,62.6,57.2,82,30.15,6.2,NW,2.3,-,N/A,,Partly Cloudy,310,2012-10-02 23:55:00
2:00 AM,62,58,81,30.16,12,NW,2.3,,,,Scattered Clouds,310,2012-10-03 00:00:00
2:55 AM,60.8,57.2,88,30.15,6.2,NNE,3.5,-,N/A,,Partly Cloudy,30,2012-10-03 00:55:00
3:55 AM,59.0,55.4,88,30.12,6.2,Calm,Calm,-,N/A,,Partly Cloudy,0,2012-10-03 01:55:00
4:55 AM,60.8,55.4,82,30.12,6.2,North,2.3,-,N/A,,Partly Cloudy,10,2012-10-03 02:55:00
5:00 AM,60,56,82,30.14,7,North,2.3,,,,Scattered Clouds,10,2012-10-03 03:00:00
6:55 AM,57.2,53.6,88,30.12,6.2,WNW,2.3,-,N/A,,Partly Cloudy,300,2012-10-03 04:55:00
7:55 AM,59.0,53.6,82,30.12,6.2,NNW,1.2,-,N/A,,Partly Cloudy,340,2012-10-03 05:55:00
8:00 AM,58,53,78,30.14,12,NNW,1.2,,,,Scattered Clouds,340,2012-10-03 06:00:00
8:55 AM,60.8,55.4,82,30.15,6.2,Calm,Calm,-,N/A,,Scattered Clouds,0,2012-10-03 06:55:00
9:55 AM,66.2,59.0,78,30.15,6.2,North,1.2,-,N/A,,Scattered Clouds,10,2012-10-03 07:55:00
10:55 AM,73.4,62.6,69,30.15,6.2,North,3.5,-,N/A,,Partly Cloudy,10,2012-10-03 08:55:00
11:00 AM,73,62,61,30.15,12,North,3.5,,,,Scattered Clouds,10,2012-10-03 09:00:00
11:55 AM,75.2,60.8,61,30.15,6.2,WNW,6.9,-,N/A,,Scattered Clouds,300,2012-10-03 09:55:00
12:55 PM,80.6,60.8,51,30.12,6.2,NW,4.6,-,N/A,,Scattered Clouds,310,2012-10-03 10:55:00
1:55 PM,80.6,57.2,45,30.12,6.2,NW,4.6,-,N/A,,Scattered Clouds,320,2012-10-03 11:55:00
2:00 PM,81,58,35,30.13,12,NW,4.6,,,,Partly Cloudy,320,2012-10-03 12:00:00
2:55 PM,82.4,57.2,42,30.09,6.2,NNE,5.8,-,N/A,,Scattered Clouds,20,2012-10-03 12:55:00
3:55 PM,80.6,55.4,42,30.09,6.2,NNW,11.5,-,N/A,,Partly Cloudy,330,2012-10-03 13:55:00
4:55 PM,82.4,53.6,37,30.09,6.2,NW,11.5,-,N/A,,Partly Cloudy,320,2012-10-03 14:55:00
5:00 PM,82,53,26,30.09,12,NW,11.5,,,,Partly Cloudy,320,2012-10-03 15:00:00
5:55 PM,78.8,50.0,36,30.09,6.2,NNW,11.5,-,N/A,,Partly Cloudy,330,2012-10-03 15:55:00
6:55 PM,75.2,60.8,61,30.09,6.2,NNW,13.8,-,N/A,,Partly Cloudy,330,2012-10-03 16:55:00
7:55 PM,73.4,62.6,69,30.09,-9999.0,NNW,11.5,-,N/A,,Clear,330,2012-10-03 17:55:00
8:00 PM,73,64,65,30.10,16,NNW,11.5,,,,Clear,330,2012-10-03 18:00:00
8:55 PM,69.8,62.6,78,30.09,-9999.0,North,8.1,-,N/A,,Clear,350,2012-10-03 18:55:00
9:55 PM,68.0,62.6,83,30.09,-9999.0,NNE,6.9,-,N/A,,Clear,20,2012-10-03 19:55:00
10:55 PM,68.0,64.4,88,30.09,-9999.0,North,6.9,-,N/A,,Clear,10,2012-10-03 20:55:00
11:00 PM,68,64,82,30.12,12,North,6.9,,,,,10,2012-10-03 21:00:00
11:55 PM,66.2,62.6,88,30.12,-9999.0,NNW,3.5,-,N/A,,Clear,340,2012-10-03 21:55:00